TimeCST,TemperatureF,Dew PointF,Humidity,Sea Level PressureIn,VisibilityMPH,Wind Direction,Wind SpeedMPH,Gust SpeedMPH,PrecipitationIn,Events,Conditions,WindDirDegrees,DateUTC
12:15 AM,41.0,21.2,45,30.20,10.0,ESE,5.8,-,N/A,,Unknown,120,2013-01-27 06:15:00
12:35 AM,42.8,21.2,42,30.20,10.0,SSE,4.6,-,N/A,,Unknown,150,2013-01-27 06:35:00
12:55 AM,42.8,21.2,42,30.20,10.0,SSE,3.5,-,N/A,,Unknown,150,2013-01-27 06:55:00
1:15 AM,42.8,23.0,46,30.20,10.0,South,6.9,-,N/A,,Unknown,170,2013-01-27 07:15:00
1:35 AM,42.8,24.8,49,30.19,10.0,SSE,9.2,-,N/A,,Unknown,150,2013-01-27 07:35:00
1:55 AM,42.8,24.8,49,30.19,10.0,SSE,10.4,-,N/A,,Unknown,150,2013-01-27 07:55:00
2:15 AM,41.0,26.6,57,30.19,10.0,SSE,9.2,-,N/A,,Unknown,160,2013-01-27 08:15:00
2:35 AM,39.2,26.6,61,30.18,10.0,SE,9.2,-,N/A,,Unknown,140,2013-01-27 08:35:00
2:55 AM,39.2,28.4,65,30.18,10.0,SSE,5.8,-,N/A,,Unknown,150,2013-01-27 08:55:00
3:15 AM,37.4,30.2,75,30.18,8.0,SSE,5.8,-,0.02,,Unknown,150,2013-01-27 09:15:00
3:35 AM,37.4,30.2,75,30.18,9.0,SSE,5.8,-,0.04,,Unknown,150,2013-01-27 09:35:00
3:55 AM,37.4,32.0,81,30.16,9.0,SE,5.8,-,0.05,,Unknown,140,2013-01-27 09:55:00
4:15 AM,37.4,32.0,81,30.16,7.0,SSE,6.9,-,0.02,,Unknown,150,2013-01-27 10:15:00
4:35 AM,37.4,32.0,81,30.15,7.0,SSE,9.2,-,0.02,,Unknown,150,2013-01-27 10:35:00
4:55 AM,37.4,32.0,81,30.12,6.0,SE,10.4,-,0.04,,Unknown,140,2013-01-27 10:55:00
5:15 AM,37.4,33.8,87,30.09,7.0,SSE,10.4,19.6,0.01,,Unknown,150,2013-01-27 11:15:00
5:35 AM,37.4,33.8,87,30.11,8.0,SSE,11.5,-,0.01,,Unknown,160,2013-01-27 11:35:00
5:55 AM,37.4,33.8,87,30.12,10.0,South,8.1,18.4,0.01,,Unknown,170,2013-01-27 11:55:00
6:15 AM,37.4,33.8,87,30.12,10.0,SSE,9.2,17.3,N/A,,Unknown,160,2013-01-27 12:15:00
6:35 AM,39.2,33.8,81,30.11,10.0,SSE,12.7,-,N/A,,Unknown,150,2013-01-27 12:35:00
6:55 AM,39.2,33.8,81,30.11,10.0,SSE,11.5,-,N/A,,Unknown,160,2013-01-27 12:55:00
7:15 AM,39.2,33.8,81,30.11,10.0,South,9.2,16.1,N/A,,Unknown,170,2013-01-27 13:15:00
7:35 AM,39.2,33.8,81,30.10,10.0,SSE,9.2,-,N/A,,Unknown,160,2013-01-27 13:35:00
7:55 AM,39.2,33.8,81,30.11,10.0,SSE,10.4,16.1,N/A,,Unknown,160,2013-01-27 13:55:00
8:15 AM,39.2,33.8,81,30.10,10.0,South,10.4,-,N/A,,Unknown,170,2013-01-27 14:15:00
8:35 AM,41.0,33.8,76,30.10,10.0,SSE,10.4,-,N/A,,Unknown,160,2013-01-27 14:35:00
8:55 AM,41.0,33.8,76,30.09,10.0,South,12.7,19.6,N/A,,Unknown,170,2013-01-27 14:55:00
9:15 AM,42.8,35.6,76,30.08,10.0,SSE,10.4,16.1,N/A,,Unknown,160,2013-01-27 15:15:00
9:35 AM,42.8,35.6,76,30.07,9.0,SSE,11.5,18.4,N/A,,Unknown,160,2013-01-27 15:35:00
9:55 AM,42.8,37.4,81,30.08,10.0,SSE,12.7,16.1,N/A,,Unknown,160,2013-01-27 15:55:00
10:15 AM,42.8,37.4,81,30.08,10.0,South,15.0,19.6,N/A,,Unknown,170,2013-01-27 16:15:00
10:35 AM,44.6,37.4,76,30.07,10.0,South,11.5,18.4,N/A,,Unknown,170,2013-01-27 16:35:00
10:55 AM,44.6,37.4,76,30.06,10.0,South,10.4,-,N/A,,Unknown,170,2013-01-27 16:55:00
11:15 AM,44.6,39.2,81,30.05,9.0,South,11.5,-,N/A,,Unknown,170,2013-01-27 17:15:00
11:35 AM,46.4,39.2,76,30.04,10.0,South,16.1,24.2,N/A,,Unknown,180,2013-01-27 17:35:00
11:55 AM,46.4,39.2,76,30.03,10.0,South,11.5,19.6,N/A,,Unknown,170,2013-01-27 17:55:00
12:15 PM,46.4,41.0,81,30.01,10.0,South,17.3,23.0,N/A,,Unknown,180,2013-01-27 18:15:00
12:35 PM,46.4,41.0,81,29.99,10.0,South,13.8,24.2,N/A,,Unknown,170,2013-01-27 18:35:00
12:55 PM,46.4,41.0,81,29.98,10.0,South,12.7,17.3,N/A,,Unknown,180,2013-01-27 18:55:00
1:15 PM,48.2,42.8,82,29.97,10.0,South,10.4,17.3,N/A,,Unknown,180,2013-01-27 19:15:00
1:35 PM,48.2,42.8,82,29.97,10.0,South,10.4,-,N/A,,Unknown,180,2013-01-27 19:35:00
1:55 PM,50.0,42.8,76,29.95,10.0,South,11.5,17.3,N/A,,Unknown,180,2013-01-27 19:55:00
2:15 PM,51.8,42.8,71,29.94,10.0,South,10.4,-,N/A,,Unknown,170,2013-01-27 20:15:00
2:35 PM,51.8,42.8,71,29.94,10.0,South,9.2,17.3,N/A,,Unknown,180,2013-01-27 20:35:00
2:55 PM,51.8,42.8,71,29.93,10.0,South,10.4,16.1,N/A,,Unknown,190,2013-01-27 20:55:00
3:15 PM,53.6,44.6,72,29.93,10.0,South,12.7,16.1,N/A,,Unknown,180,2013-01-27 21:15:00
3:35 PM,53.6,44.6,72,29.92,10.0,South,13.8,19.6,N/A,,Unknown,190,2013-01-27 21:35:00
3:55 PM,53.6,46.4,77,29.93,10.0,SSW,15.0,20.7,N/A,,Unknown,200,2013-01-27 21:55:00
4:15 PM,53.6,44.6,72,29.92,10.0,South,12.7,19.6,N/A,,Unknown,190,2013-01-27 22:15:00
4:35 PM,53.6,44.6,72,29.92,10.0,South,11.5,18.4,N/A,,Unknown,180,2013-01-27 22:35:00
4:55 PM,53.6,44.6,72,29.92,10.0,South,10.4,-,N/A,,Unknown,190,2013-01-27 22:55:00
5:15 PM,51.8,46.4,82,29.91,10.0,South,11.5,17.3,N/A,,Unknown,180,2013-01-27 23:15:00
5:35 PM,51.8,44.6,76,29.92,10.0,South,9.2,-,N/A,,Unknown,180,2013-01-27 23:35:00
5:55 PM,51.8,46.4,82,29.93,10.0,South,8.1,-,N/A,,Unknown,180,2013-01-27 23:55:00
6:15 PM,51.8,46.4,82,29.93,10.0,South,9.2,-,N/A,,Unknown,190,2013-01-28 00:15:00
6:35 PM,51.8,46.4,82,29.93,10.0,South,9.2,-,N/A,,Unknown,180,2013-01-28 00:35:00
6:55 PM,51.8,46.4,82,29.93,10.0,South,11.5,-,N/A,,Unknown,180,2013-01-28 00:55:00
7:15 PM,51.8,46.4,82,29.94,10.0,South,12.7,17.3,N/A,,Unknown,190,2013-01-28 01:15:00
7:35 PM,53.6,46.4,77,29.94,10.0,South,10.4,19.6,N/A,,Unknown,190,2013-01-28 01:35:00
7:55 PM,53.6,48.2,82,29.94,10.0,South,12.7,19.6,N/A,,Unknown,190,2013-01-28 01:55:00
8:15 PM,53.6,48.2,82,29.94,10.0,South,10.4,17.3,N/A,,Unknown,190,2013-01-28 02:15:00
8:35 PM,55.4,48.2,77,29.93,10.0,South,11.5,17.3,N/A,,Unknown,180,2013-01-28 02:35:00
8:55 PM,55.4,48.2,77,29.93,10.0,South,11.5,-,N/A,,Unknown,190,2013-01-28 02:55:00
9:15 PM,55.4,48.2,77,29.94,10.0,South,9.2,-,N/A,,Unknown,190,2013-01-28 03:15:00
9:35 PM,55.4,50.0,82,29.94,10.0,SSW,11.5,18.4,N/A,,Unknown,200,2013-01-28 03:35:00
9:55 PM,57.2,48.2,72,29.94,10.0,South,12.7,19.6,N/A,,Unknown,190,2013-01-28 03:55:00
10:15 PM,57.2,50.0,77,29.95,10.0,SSW,11.5,17.3,N/A,,Unknown,200,2013-01-28 04:15:00
10:35 PM,57.2,50.0,77,29.94,10.0,SSW,11.5,17.3,N/A,,Unknown,200,2013-01-28 04:35:00
10:55 PM,57.2,50.0,77,29.95,10.0,SSW,10.4,-,N/A,,Unknown,200,2013-01-28 04:55:00
11:15 PM,57.2,50.0,77,29.95,10.0,South,12.7,-,N/A,,Unknown,190,2013-01-28 05:15:00
11:35 PM,57.2,50.0,77,29.94,10.0,South,12.7,18.4,N/A,,Unknown,190,2013-01-28 05:35:00
11:55 PM,57.2,51.8,82,29.94,10.0,South,10.4,18.4,N/A,,Unknown,190,2013-01-28 05:55:00